Haines, AK

4:13 PM AKDT on June 22, 2017 (GMT -0800)
Haines

Weather History for PAHN - April, 2014

Change the Weather History Date:

Sunday, April 27, 2014

  Actual Average Record
Temperature  
Mean Temperature 46 °F -  
Max Temperature 57 °F 50 °F 72 °F (2005)
Min Temperature 34 °F 35 °F 28 °F (2002)
Degree Days  
Heating Degree Days 20    
Moisture  
Dew Point 33 °F    
Average Humidity 60    
Maximum Humidity 82    
Minimum Humidity 33    
Precipitation  
Precipitation 0.00 in - - ()
Sea Level Pressure  
Sea Level Pressure 29.50 in    
Wind  
Wind Speed 12 mph (WNW)    
Max Wind Speed 16 mph    
Max Gust Speed 20 mph    
Visibility 10 miles    
Events      
Averages and records for this station are not official NWS values.
T = Trace of Precipitation, MM = Missing Value Source: NWS Daily Summary

Daily Weather History Graph

Daily Weather History Graph

Search for Another Location

Airport or City:

Trip Planner

Search our weather history database for the weather conditions in past years. The results will help you decide how hot, cold, wet, or windy it might be!

Date:

Astronomy

Apr. 27, 2014 Rise Set
Actual Time 5:13 AM AKDT 8:47 PM AKDT
Civil Twilight 4:24 AM AKDT 9:36 PM AKDT
Nautical Twilight 3:13 AM AKDT 10:49 PM AKDT
Astronomical Twilight 1:32 AM AKDT 12:27 AM AKDT
Moon 4:47 AM AKDT (4/27) 7:09 PM AKDT (4/27)
Length of Visible Light 17h 12m
Length of Day
15h 33m
Waning Crescent, 2% of the Moon is Illuminated
Apr 27
Waning Crescent
Apr 28
New
May 6
First Quarter
May 14
Full
May 21
Last Quarter

Hourly Weather History & Observations

Time (AKDT) Temp. Windchill Dew Point Humidity Pressure Visibility Wind Dir Wind Speed Gust Speed Precip Events Conditions
12:54 AM 41.0 °F 34.3 °F 32.0 °F 70% 29.47 in 10.0 mi WNW 11.5 mph - N/A   Clear
1:54 AM 42.1 °F 35.7 °F 30.9 °F 65% 29.47 in 10.0 mi NW 11.5 mph - N/A   Clear
2:54 AM 36.0 °F 28.0 °F 30.9 °F 82% 29.46 in 10.0 mi WNW 11.5 mph - N/A   Clear
3:54 AM 37.9 °F 30.9 °F 30.0 °F 73% 29.45 in 10.0 mi WNW 10.4 mph - N/A   Clear
4:54 AM 35.1 °F 25.2 °F 28.9 °F 78% 29.45 in 10.0 mi WNW 16.1 mph - N/A   Clear
5:54 AM 34.0 °F 24.2 °F 28.9 °F 82% 29.45 in 10.0 mi WNW 15.0 mph - N/A   Clear
6:54 AM 35.1 °F 25.2 °F 28.9 °F 78% 29.45 in 10.0 mi WNW 16.1 mph - N/A   Clear
7:54 AM 39.0 °F 30.6 °F 28.9 °F 67% 29.45 in 10.0 mi WNW 15.0 mph - N/A   Clear
8:54 AM 43.0 °F 35.7 °F 30.9 °F 62% 29.44 in 10.0 mi WNW 15.0 mph - N/A   Clear
9:54 AM 48.9 °F - 30.0 °F 48% 29.44 in 10.0 mi WNW 16.1 mph - N/A   Clear
10:54 AM 53.1 °F - 28.0 °F 38% 29.44 in 10.0 mi NW 15.0 mph - N/A   Overcast
11:54 AM 55.9 °F - 28.9 °F 36% 29.45 in 10.0 mi NW 11.5 mph - N/A   Overcast
12:54 PM 57.0 °F - 28.0 °F 33% 29.47 in 10.0 mi Variable 6.9 mph - N/A   Overcast
1:54 PM 55.9 °F - 30.9 °F 39% 29.48 in 10.0 mi SE 6.9 mph - N/A   Mostly Cloudy
2:54 PM 54.0 °F - 35.1 °F 49% 29.49 in 10.0 mi SE 8.1 mph - N/A   Clear
3:54 PM 55.0 °F - 33.1 °F 43% 29.50 in 10.0 mi SE 9.2 mph - N/A   Clear
4:54 PM 55.9 °F - 36.0 °F 47% 29.51 in 10.0 mi SE 10.4 mph - N/A   Scattered Clouds
5:54 PM 53.1 °F - 35.1 °F 50% 29.52 in 10.0 mi SE 9.2 mph - N/A   Partly Cloudy
6:54 PM 52.0 °F - 35.1 °F 53% 29.54 in 10.0 mi East 4.6 mph - N/A   Overcast
7:54 PM 50.0 °F - 37.0 °F 61% 29.56 in 10.0 mi SE 8.1 mph - N/A   Overcast
8:54 PM 48.9 °F - 37.9 °F 66% 29.59 in 10.0 mi East 8.1 mph - N/A   Overcast
9:54 PM 48.0 °F - 37.9 °F 68% 29.62 in 10.0 mi ESE 12.7 mph 18.4 mph N/A   Overcast
10:54 PM 46.0 °F 41.0 °F 39.9 °F 79% 29.65 in 10.0 mi ESE 10.4 mph - N/A   Overcast
11:54 PM 45.0 °F 40.1 °F 39.0 °F 80% 29.69 in 10.0 mi East 9.2 mph 19.6 mph N/A   Overcast